When you browse on this site, cookies collect data to enhance your experience and personalize the content and advertising you see.
Visit our Privacy Policy to learn more. By continuing to use the site, you agree to this use of cookies and data.
  • In Hungary
  • List of Countries
  • For 7 days
  • Water Temperature
  • Weather Map
  • News
  • Weather Widgets
  • user-avatar
    Login

    Hourly Weather Tarhovo

    Today, 14 October, Monday

    Time Temperature Precipitation Wind Pressure Humidity
    00:00 +7°C° 0 mm 5 mps 745 mmHg 91%
    01:00 +7°C° 0 mm 5 mps 746 mmHg 92%
    02:00 +7°C° 0 mm 5 mps 746 mmHg 93%
    03:00 +7°C° 0 mm 4 mps 746 mmHg 94%
    04:00 +7°C° 0 mm 4 mps 747 mmHg 94%
    05:00 +7°C° 0 mm 4 mps 747 mmHg 95%
    06:00 +6°C° 0 mm 4 mps 747 mmHg 96%
    07:00 +7°C° 0 mm 5 mps 747 mmHg 94%
    08:00 +7°C° 0 mm 5 mps 748 mmHg 91%
    09:00 +8°C° 0 mm 5 mps 748 mmHg 89%
    10:00 +9°C° 0 mm 5 mps 748 mmHg 83%
    11:00 +10°C° 0 mm 5 mps 749 mmHg 76%
    12:00 +13°C° 0 mm 5 mps 749 mmHg 69%
    13:00 +13°C° 0 mm 5 mps 749 mmHg 69%
    14:00 +13°C° 0 mm 5 mps 749 mmHg 68%
    15:00 +13°C° 0 mm 5 mps 749 mmHg 68%
    16:00 +12°C° 0 mm 4 mps 749 mmHg 73%
    17:00 +11°C° 0 mm 4 mps 749 mmHg 79%
    18:00 +10°C° 0 mm 3 mps 748 mmHg 85%
    19:00 +10°C° 0 mm 3 mps 748 mmHg 84%
    20:00 +11°C° 0 mm 4 mps 748 mmHg 83%
    21:00 +11°C° 0 mm 4 mps 747 mmHg 82%
    22:00 +12°C° 0 mm 5 mps 746 mmHg 85%
    23:00 +13°C° 0 mm 6 mps 746 mmHg 88%

    Tomorrow, 15 October, Tuesday

    Time Temperature Precipitation Wind Pressure Humidity
    00:00 +12°C° 0 mm 7 mps 745 mmHg 91%
    01:00 +12°C° 0 mm 7 mps 744 mmHg 89%
    02:00 +12°C° 0 mm 7 mps 744 mmHg 86%
    03:00 +12°C° 0 mm 7 mps 744 mmHg 84%
    04:00 +12°C° 0 mm 7 mps 743 mmHg 84%
    05:00 +12°C° 0 mm 7 mps 743 mmHg 84%
    06:00 +11°C° 0 mm 6 mps 743 mmHg 84%
    07:00 +12°C° 0 mm 7 mps 743 mmHg 84%
    08:00 +12°C° 0 mm 7 mps 744 mmHg 83%
    09:00 +12°C° 0 mm 7 mps 744 mmHg 83%
    10:00 +14°C° 0 mm 7 mps 744 mmHg 77%
    11:00 +15°C° 0 mm 7 mps 744 mmHg 72%
    12:00 +15°C° 0 mm 7 mps 744 mmHg 67%
    13:00 +15°C° 0 mm 7 mps 745 mmHg 66%
    14:00 +15°C° 0 mm 7 mps 746 mmHg 65%
    15:00 +15°C° 0 mm 6 mps 746 mmHg 64%
    16:00 +14°C° 0 mm 6 mps 747 mmHg 69%
    17:00 +12°C° 0 mm 5 mps 747 mmHg 74%
    18:00 +10°C° 0 mm 5 mps 748 mmHg 79%
    19:00 +10°C° 0 mm 4 mps 749 mmHg 80%
    20:00 +8°C° 0 mm 4 mps 749 mmHg 82%
    21:00 +7°C° 0 mm 4 mps 750 mmHg 84%
    22:00 +7°C° 0 mm 3 mps 750 mmHg 84%
    23:00 +7°C° 0 mm 3 mps 751 mmHg 84%

    Day after tomorrow, 16 October, Wednesday

    Time Temperature Precipitation Wind Pressure Humidity
    00:00 +5°C° 0 mm 3 mps 751 mmHg 85%
    01:00 +5°C° 0 mm 3 mps 752 mmHg 85%
    02:00 +4°C° 0 mm 3 mps 752 mmHg 86%
    03:00 +3°C° 0 mm 3 mps 753 mmHg 86%
    04:00 +3°C° 0 mm 3 mps 753 mmHg 86%
    05:00 +2°C° 0 mm 3 mps 754 mmHg 85%
    06:00 +3°C° 0 mm 2 mps 754 mmHg 85%
    07:00 +2°C° 0 mm 3 mps 754 mmHg 81%
    08:00 +2°C° 0 mm 3 mps 755 mmHg 77%
    09:00 +3°C° 0 mm 3 mps 755 mmHg 73%
    10:00 +4°C° 0 mm 2 mps 755 mmHg 68%
    11:00 +5°C° 0 mm 2 mps 755 mmHg 63%
    12:00 +6°C° 0 mm 2 mps 755 mmHg 58%
    13:00 +6°C° 0 mm 2 mps 755 mmHg 56%
    14:00 +8°C° 0 mm 1 mps 755 mmHg 54%
    15:00 +8°C° 0 mm 1 mps 755 mmHg 53%
    16:00 +7°C° 0 mm 1 mps 755 mmHg 56%
    17:00 +7°C° 0 mm 1 mps 755 mmHg 60%
    18:00 +6°C° 0 mm 1 mps 755 mmHg 63%
    19:00 +6°C° 0 mm 1 mps 755 mmHg 65%
    20:00 +4°C° 0 mm 2 mps 755 mmHg 67%
    21:00 +4°C° 0 mm 2 mps 755 mmHg 68%
    22:00 +3°C° 0 mm 3 mps 755 mmHg 69%
    23:00 +3°C° 0 mm 3 mps 755 mmHg 70%

    17 October, Thursday

    Time Temperature Precipitation Wind Pressure Humidity
    00:00 +3°C° 0 mm 3 mps 755 mmHg 71%
    01:00 +3°C° 0 mm 3 mps 754 mmHg 71%
    02:00 +3°C° 0 mm 3 mps 754 mmHg 71%
    03:00 +3°C° 0 mm 3 mps 754 mmHg 71%
    04:00 +3°C° 0 mm 4 mps 754 mmHg 70%
    05:00 +3°C° 0 mm 4 mps 754 mmHg 70%
    06:00 +4°C° 0 mm 4 mps 753 mmHg 70%
    07:00 +3°C° 0 mm 5 mps 753 mmHg 69%
    08:00 +4°C° 0 mm 6 mps 753 mmHg 68%
    09:00 +5°C° 0 mm 7 mps 752 mmHg 67%
    10:00 +6°C° 0 mm 7 mps 752 mmHg 65%
    11:00 +9°C° 0 mm 7 mps 751 mmHg 63%
    12:00 +10°C° 0 mm 7 mps 751 mmHg 61%
    13:00 +11°C° 0 mm 7 mps 750 mmHg 61%
    14:00 +11°C° 0 mm 8 mps 750 mmHg 61%
    15:00 +12°C° 0 mm 8 mps 749 mmHg 62%
    16:00 +11°C° 0 mm 7 mps 749 mmHg 65%
    17:00 +10°C° 0 mm 7 mps 748 mmHg 69%
    18:00 +10°C° 0 mm 7 mps 748 mmHg 72%
    19:00 +9°C° 0 mm 7 mps 748 mmHg 75%
    20:00 +9°C° 0 mm 6 mps 748 mmHg 77%
    21:00 +9°C° 0 mm 6 mps 747 mmHg 79%
    22:00 +9°C° 0.1 mm 6 mps 747 mmHg 83%
    23:00 +9°C° 0.1 mm 5 mps 747 mmHg 86%

    18 October, Friday

    Time Temperature Precipitation Wind Pressure Humidity
    00:00 +9°C° 0.1 mm 5 mps 746 mmHg 89%
    01:00 +10°C° 0 mm 4 mps 746 mmHg 91%
    02:00 +10°C° 0 mm 4 mps 746 mmHg 93%
    03:00 +11°C° 0 mm 3 mps 746 mmHg 95%
    04:00 +10°C° 0 mm 3 mps 746 mmHg 95%
    05:00 +10°C° 0 mm 3 mps 746 mmHg 95%
    06:00 +10°C° 0 mm 3 mps 746 mmHg 95%
    07:00 +10°C° 0.2 mm 4 mps 747 mmHg 93%
    08:00 +9°C° 0.2 mm 5 mps 747 mmHg 90%
    09:00 +8°C° 0.2 mm 5 mps 748 mmHg 88%
    10:00 +7°C° 0 mm 5 mps 749 mmHg 83%
    11:00 +6°C° 0 mm 5 mps 749 mmHg 78%
    12:00 +6°C° 0 mm 5 mps 750 mmHg 72%
    13:00 +5°C° 0 mm 5 mps 750 mmHg 69%
    14:00 +5°C° 0 mm 5 mps 751 mmHg 66%
    15:00 +5°C° 0 mm 5 mps 751 mmHg 63%
    16:00 +4°C° 0 mm 4 mps 752 mmHg 67%
    17:00 +3°C° 0 mm 4 mps 752 mmHg 70%
    18:00 +2°C° 0 mm 3 mps 753 mmHg 74%
    19:00 +2°C° 0 mm 3 mps 753 mmHg 76%
    20:00 +1°C° 0 mm 3 mps 754 mmHg 77%
    21:00 +1°C° 0 mm 3 mps 754 mmHg 79%
    22:00 +1°C° 0 mm 3 mps 755 mmHg 81%
    23:00 +1°C° 0 mm 2 mps 755 mmHg 83%

    19 October, Saturday

    Time Temperature Precipitation Wind Pressure Humidity
    00:00 +1°C° 0 mm 2 mps 755 mmHg 85%
    01:00 -1°C° 0 mm 2 mps 755 mmHg 87%
    02:00 -1°C° 0 mm 2 mps 756 mmHg 88%
    03:00 -2°C° 0 mm 2 mps 756 mmHg 89%
    04:00 -2°C° 0 mm 2 mps 756 mmHg 89%
    05:00 -2°C° 0 mm 2 mps 756 mmHg 89%
    06:00 -2°C° 0 mm 2 mps 757 mmHg 88%
    07:00 -1°C° 0 mm 2 mps 757 mmHg 83%
    08:00 +1°C° 0 mm 1 mps 757 mmHg 77%
    09:00 +2°C° 0 mm 1 mps 757 mmHg 71%
    10:00 +3°C° 0 mm 1 mps 757 mmHg 66%
    11:00 +4°C° 0 mm 1 mps 758 mmHg 60%
    12:00 +5°C° 0 mm 1 mps 758 mmHg 54%
    13:00 +6°C° 0 mm 1 mps 758 mmHg 53%
    14:00 +6°C° 0 mm 1 mps 757 mmHg 52%
    15:00 +6°C° 0 mm 1 mps 757 mmHg 50%
    16:00 +5°C° 0 mm 1 mps 757 mmHg 55%
    17:00 +5°C° 0 mm 1 mps 757 mmHg 59%
    18:00 +4°C° 0 mm 1 mps 757 mmHg 64%
    19:00 +3°C° 0 mm 1 mps 757 mmHg 66%
    20:00 +3°C° 0 mm 1 mps 757 mmHg 68%
    21:00 +2°C° 0 mm 1 mps 758 mmHg 70%
    22:00 +2°C° 0 mm 1 mps 758 mmHg 72%
    23:00 +1°C° 0 mm 2 mps 758 mmHg 73%
    Show more